Satellite-Ground Cal/Val Site Overpasses Predictions

Prediction of Satellite NPP Overpassing Cal/Val Site: Antarctic Dome C

Ground Cal/Val Site Location: Latitude: -75.10, Longitude: 123.35; Satellite-Ground Site NADIR distance within 100 km.

Table of predicted overpasses for the next 14.0 days since TLE Epoch: 6/26/2021
Interval Starting Time Ending Time Minimum Distance Time Minimum Distance (km)
1 06/27/2021 15:07:37 06/27/2021 15:07:42 06/27/2021 15:07:40 97.70
2 06/28/2021 14:48:37 06/28/2021 14:49:06 06/28/2021 14:48:51 13.49
3 06/30/2021 07:31:27 06/30/2021 07:31:57 06/30/2021 07:31:42 0.76
4 07/03/2021 14:54:57 07/03/2021 14:55:25 07/03/2021 14:55:11 23.20
5 07/04/2021 14:36:15 07/04/2021 14:36:31 07/04/2021 14:36:23 83.75
6 07/05/2021 07:37:48 07/05/2021 07:38:15 07/05/2021 07:38:02 35.94
7 07/06/2021 07:19:04 07/06/2021 07:19:23 07/06/2021 07:19:13 74.01
8 07/08/2021 15:01:20 07/08/2021 15:01:44 07/08/2021 15:01:32 60.60
